Regional Weather Roundup
Issued by NWS

Home | Current Version | Previous Version | Text Only | Print | Product List | Glossary On
Versions: 1 2 3 4 5 6 7 8 9 10 11 12 13 14 15 16 17 18 19 20 21 22 23 24 25 26 27 28 29 30 31 32 33 34 35 36 37 38 39 40 41 42 43 44 45 46 47 48 49 50
000
ASUS44 KJAN 070910
RWRMS

MISSISSIPPI HOURLY WEATHER ROUNDUP
NATIONAL WEATHER SERVICE JACKSON MS
400 AM CDT TUE JUL 07 2015

NOTE: "FAIR: INDICATES FEW OR NO CLOUDS BELOW 12,000 FEET WITH NO
SIGNIFICANT WEATHER AND/OR OBSTRUCTIONS TO VISIBILITY.

MSZ001>002-007>008-010>013-018>021-025>028-034>036-071000-
NORTHWEST MISSISSIPPI

CITY           SKY/WX    TMP DP  RH WIND       PRES   REMARKS
CLARKSDALE     FAIR      75  75 100 S7        30.04S
CLEVELAND      FAIR      75  75 100 S6        30.04S
GREENWOOD      CLEAR     76  72  87 S8        30.06F
GREENVILLE     PTCLDY    78  74  87 SW12      30.04S
OLIVE BRANCH     N/A     73 N/A N/A S9        30.04R
OXFORD         FAIR      73  72  94 S8        30.07S
TUNICA         PTSUNNY   77  73  88 S9        30.03R
$$

MSZ003>006-009-014>017-022>024-029>033-037>039-071000-
NORTHEAST MISSISSIPPI

CITY           SKY/WX    TMP DP  RH WIND       PRES   REMARKS
COLUMBUS AFB   PTCLDY    74  73  96 S3        30.09R
CORINTH        FAIR      75  72  88 S7        30.05F
GOLDN TRIANGLE CLEAR     73  70  88 S6        30.09S
STARKVILLE     FAIR      70  70 100 CALM      30.09S FOG
TUPELO         CLEAR     74  72  93 SW7       30.07S
$$

MSZ040-058-071000-
CENTRAL MISSISSIPPI

CITY           SKY/WX    TMP DP  RH WIND       PRES   REMARKS
JACKSON INTL   PTCLDY    77  75  93 S7        30.09F
JACKSON HAWKNS PTCLDY    76  74  93 S6        30.10F
MERIDIAN KEY   PTCLDY    73  72  96 S6        30.12S
MERIDIAN NAS   CLEAR     75  72  90 CALM      30.11S
VICKSBURG      PTCLDY    77  74  90 S5        30.08S
$$

MSZ059>079-071000-
SOUTH MISSISSIPPI

CITY           SKY/WX    TMP DP  RH WIND       PRES   REMARKS
BROOKHAVEN       N/A     75  75 100 SE3       30.13F
HATTIESBURG    PTCLDY    78  76  93 S3        30.12F
MCCOMB         FOG       75  75 100 SE3       30.12S VSB 1/4
NATCHEZ        NOT AVBL
PINE BELT      MOCLDY    75  73  94 S5        30.13S
$$

MSZ080>082-071000-
COASTAL MISSISSIPPI

CITY           SKY/WX    TMP DP  RH WIND       PRES   REMARKS
BILOXI         CLEAR     81  79  94 SW7       30.11S
PASCAGOULA     PTCLDY    74  74 100 CALM      30.12R
GULFPORT       PTCLDY    79  76  90 CALM      30.11S
$$


USA.gov is the U.S. government's official web portal to all federal, state and local government web resources and services.